EHI
3 3 3 3 2 1 0 0 0 0 0 0 1 3 5 4 2 0 0 0 0 0 0 0 0 0 0 0 0 0 0 0 0 0 0 0 0 0
2 2 2 3 2 1 0 1 1 1 0 1 2 3 4 3 1 1 1 0 0 0 0 0 0 0 0 0 0 0 0 0 0 0 0 0 0 0
1 0 1 2 1 1 1 2 2 2 1 2 2 3 3 2 1 2 2 1 0 0 0 0 0 0 0 0 0 0 0 0 0 0 0 0 0 0
0 0 0 0 1 1 2 3 3 3 2 2 3 3 3 3 2 2 2 1 0 0 0 0 0 0 0 0 0 0 0 0 0 0 0 0 0 0
0 0 0 0 0 1 3 3 3 3 3 3 3 3 3 3 3 3 2 1 0 0 0 0 0 0 0 0 0 0 0 0 0 0 0 0 0 0
0 0 0 0 0 1 3 3 3 3 3 3 3 3 3 3 3 3 2 1 0 0 0 0 0 0 0 0 0 0 0 0 0 0 0 0 0 0
0 0 0 0 0 1 2 3 3 3 3 3 3 3 3 3 3 2 1 0 0 0 0 0 0 0 0 0 0 0 0 0 0 0 0 0 0 0
0 0 0 0 0 1 1 1 2 3 3 3 3 3 3 3 2 1 0 0 0 0 0 0 0 0 0 0 0 0 0 0 0 0 0 0 0 0
0 0 0 0 0 0 0 1 1 1 2 3 3 3 3 3 2 1 0 0 0 0 0 0 0 0 0 0 0 0 0 0 0 0 0 0 0 0
0 0 0 0 0 0 1 1 1 1 1 2 2 2 2 2 2 1 0 0 0 0 0 0 0 0 0 0 0 0 0 0 0 0 0 0 0 0
0 0 0 0 0 0 1 1 1 0 0 1 1 1 1 1 1 1 0 0 0 0 0 0 0 0 0 0 0 0 0 0 0 0 0 0 0 0
0 0 0 0 0 0 0 1 0 0 0 0 0 0 0 0 0 0 0 0 0 0 0 0 0 0 0 0 0 0 0 0 0 0 0 0 0 0
0 0 0 0 0 0 0 0 0 0 0 0 0 0 0 0 0 0 0 0 0 0 0 0 0 0 0 0 0 0 0 0 0 0 0 0 0 0
0 0 0 0 0 0 0 0 0 0 0 0 0 0 0 0 0 0 0 0 0 0 0 0 0 0 0 0 0 0 0 0 0 0 0 0 0 0
0 0 0 0 0 0 0 0 0 0 0 0 0 0 0 0 0 0 0 0 0 0 0 0 0 0 0 0 0 0 0 0 0 0 0 0 0 0
0 0 0 0 0 0 0 0 0 0 0 0 0 0 0 0 0 0 0 0 0 0 0 0 0 0 0 0 0 0 0 0 0 0 0 0 0 0
0 0 0 0 0 0 0 0 0 0 0 0 0 0 0 0 0 0 0 0 0 0 0 0 0 0 0 0 0 0 0 0 0 0 0 0 0 0
0 0 0 0 0 0 0 0 0 0 0 0 0 0 0 0 0 0 0 0 0 0 0 0 0 0 0 0 0 0 0 0 0 0 0 0 0 0
0 0 0 0 0 0 0 0 0 0 0 0 0 0 0 0 0 0 0 0 0 0 0 0 0 0 0 0 0 0 0 0 0 0 0 0 0 0
0 0 0 0 0 0 0 0 0 0 0 0 0 0 0 0 0 0 0 0 0 0 0 0 0 0 0 0 0 0 0 0 0 0 0 0 0 0
0 0 0 0 0 0 0 0 0 0 0 0 0 0 0 0 0 0 0 0 0 0 0 0 0 0 0 0 0 0 0 0 0 0 0 0 0 0
0 0 0 0 0 0 0 0 0 0 0 0 0 0 0 0 0 0 0 0 0 0 0 0 0 0 0 0 0 0 0 0 0 0 0 0 0 0
0 0 0 0 0 0 0 0 0 0 0 0 0 0 0 0 0 0 0 0 0 0 0 0 0 0 0 0 0 0 0 0 0 0 0 0 0 0
Wind_Speed
3 3 3 3 3 3 3 3 3 5 5 4 2 2 2 2 4 4 4 8 10 11 11 12 12 12 12 11 10 10 9 9 9 10 11 11 12 12
2 3 3 3 3 3 3 3 3 4 5 4 3 2 2 3 4 4 4 7 10 12 13 13 13 13 12 12 11 11 10 10 9 9 11 11 11 11
4 3 3 3 3 3 4 4 3 3 5 5 4 3 3 4 3 3 4 4 5 10 12 13 14 13 12 12 11 11 11 11 10 10 9 10 10 10
4 4 4 4 4 4 4 4 4 3 3 5 5 4 4 3 4 4 4 4 4 7 11 12 13 13 13 12 11 11 10 10 10 10 10 10 10 9
4 4 4 4 4 4 4 4 4 4 3 4 5 4 3 4 4 4 4 2 3 4 6 9 10 11 11 11 11 11 11 11 11 11 11 11 10 10
3 3 3 3 4 4 4 4 4 4 4 4 4 3 3 3 3 3 3 2 3 4 3 3 6 9 10 11 11 12 12 12 12 12 12 12 11 11
4 3 3 3 4 4 4 4 4 3 4 4 4 3 3 3 3 3 4 3 3 3 2 3 3 3 5 8 10 12 12 12 12 12 12 12 12 12
5 4 3 3 4 5 5 6 5 4 4 3 4 4 4 4 3 4 3 4 3 2 2 4 3 3 4 5 8 11 12 12 12 13 12 12 12 12
3 3 4 4 5 4 5 6 5 6 5 4 4 5 5 4 4 4 4 4 4 4 2 4 3 4 4 4 6 9 11 12 12 13 13 12 12 12
2 2 3 3 5 5 5 5 4 5 5 3 4 5 6 4 4 4 4 4 4 4 2 3 3 3 4 3 6 9 10 11 11 11 12 12 12 12
3 3 3 3 4 5 4 5 5 5 7 6 6 7 8 8 5 3 3 3 4 4 2 2 2 3 3 2 3 8 10 11 11 11 12 12 12 11
3 2 4 4 4 4 3 4 5 6 6 7 6 7 5 5 4 3 3 3 4 4 2 2 3 2 3 2 2 2 4 7 10 11 11 12 11 7
4 3 2 4 5 5 4 4 6 7 6 5 4 4 4 3 3 2 2 3 3 4 3 2 3 3 3 3 2 2 3 3 4 6 9 11 12 10
4 4 4 5 6 6 5 6 8 7 4 4 4 4 3 3 3 3 4 4 3 4 4 3 3 4 3 3 3 2 2 3 3 4 4 7 9 12
4 6 7 7 6 5 5 6 5 3 3 4 4 4 4 4 4 3 4 4 4 4 4 3 3 3 3 3 3 2 3 3 3 3 3 3 4 5
5 6 7 6 5 5 4 3 2 2 3 3 4 4 4 4 3 3 4 4 3 3 3 3 3 3 3 4 3 3 3 3 3 2 2 2 3 4
5 4 3 3 3 2 2 2 2 3 3 3 3 3 4 4 4 4 3 3 4 4 4 3 3 3 3 3 3 3 3 2 2 2 2 2 3 3
4 3 3 4 4 4 3 3 3 3 3 3 3 4 4 4 4 4 4 3 4 4 4 4 4 4 4 3 2 2 2 2 2 1 2 2 3 2
2 3 3 4 4 4 4 4 4 4 3 3 3 4 4 4 4 4 4 4 4 4 3 4 3 3 4 4 3 3 3 2 2 2 1 2 2 2
2 3 4 4 4 4 4 4 4 4 4 4 4 4 4 4 4 4 4 4 4 4 4 3 3 2 3 4 4 4 4 2 2 2 2 1 1 2
4 4 4 4 4 4 4 4 4 4 5 4 4 4 4 4 4 4 4 5 4 4 4 4 4 4 3 2 2 2 2 2 2 2 2 2 2 2
4 4 4 4 4 4 4 4 5 5 5 5 5 5 4 4 4 5 4 4 4 4 4 3 3 3 2 2 3 3 3 2 2 2 2 2 2 2
3 3 4 4 4 4 5 6 6 5 5 6 6 5 5 5 4 4 4 4 4 4 4 4 3 3 2 2 2 2 3 3 2 1 1 3 3 4
Wind_Direction
291 290 292 295 292 285 283 281 279 289 286 278 272 257 250 234 211 214 214 222 222 219 221 225 225 223 225 225 227 230 232 232 232 232 228 229 231 233
284 287 294 300 305 306 297 292 285 280 285 286 280 277 282 281 243 237 229 222 223 222 223 224 223 221 223 224 223 224 225 226 228 230 226 226 230 234
297 297 292 299 306 308 310 306 298 292 285 291 292 291 282 279 277 264 245 223 223 223 223 221 218 217 218 220 220 220 222 221 221 227 227 226 228 232
297 304 303 309 304 303 303 301 301 298 289 297 300 296 291 282 269 266 272 264 244 230 222 219 217 216 216 216 217 217 218 219 218 223 226 225 225 229
312 316 312 311 303 303 303 309 308 309 303 295 293 292 291 299 297 283 278 281 286 268 231 225 225 220 218 217 217 215 216 217 219 222 224 225 226 227
311 309 308 305 307 313 316 326 325 322 316 307 302 302 304 313 322 308 302 297 289 288 286 260 238 224 223 221 220 217 215 216 219 221 223 224 224 225
312 316 333 360 7 348 344 336 329 325 321 316 317 319 322 328 323 317 306 297 285 267 266 267 246 229 226 229 226 222 219 217 218 219 220 221 223 224
317 328 328 24 12 349 333 323 312 309 312 312 313 316 314 314 313 310 308 309 299 274 270 278 270 249 232 222 218 215 214 215 217 217 217 219 221 222
324 328 339 9 9 354 331 319 310 299 283 281 297 301 302 304 308 306 303 303 290 279 278 276 271 268 259 248 214 213 212 215 218 217 218 219 221 223
336 360 24 2 353 353 332 333 330 330 309 295 288 290 296 295 287 283 285 293 289 284 268 271 267 264 268 239 208 210 211 214 217 219 220 220 221 223
354 28 32 12 0 351 339 331 328 324 325 326 306 295 292 292 289 295 292 294 296 296 285 272 274 277 274 267 235 218 214 213 216 218 221 221 220 220
357 38 36 4 345 348 333 322 319 320 325 324 317 308 305 297 286 260 278 291 299 300 312 305 292 301 286 259 242 226 220 222 223 223 224 225 219 212
336 339 355 341 321 321 315 299 301 311 310 307 313 322 334 333 329 307 287 281 288 290 297 305 296 293 276 278 273 245 224 225 221 224 221 221 214 206
324 334 338 326 307 301 301 301 314 322 318 323 329 334 335 335 335 324 306 293 271 271 279 280 276 283 282 276 277 264 246 234 228 222 218 214 214 213
316 319 313 306 305 299 304 307 313 322 326 331 335 333 334 332 329 323 318 313 308 302 304 290 280 282 279 270 267 265 269 259 233 223 215 204 204 201
321 313 302 293 293 293 308 313 312 325 328 328 330 330 330 332 335 331 326 326 323 315 315 315 307 302 296 286 269 261 256 245 234 222 213 220 215 210
324 308 321 335 339 342 348 350 347 350 345 335 328 330 337 338 333 332 328 327 326 323 325 323 312 308 298 291 279 268 264 258 234 216 212 228 233 218
324 324 342 346 344 349 354 354 358 1 347 338 335 337 336 334 332 332 328 326 325 320 320 321 326 324 322 319 316 301 287 276 278 239 217 223 238 222
331 343 350 349 349 354 357 356 356 355 342 337 335 332 328 327 328 327 325 324 322 321 319 320 322 326 326 324 318 321 306 288 279 269 245 228 234 228
1 354 352 359 358 354 354 353 350 348 343 335 334 334 330 325 322 319 323 330 327 321 319 318 318 319 308 303 301 302 305 284 271 271 268 254 249 221
9 3 2 5 358 350 350 348 346 344 344 341 341 336 329 324 323 325 326 329 322 318 318 312 301 296 281 286 291 296 300 304 290 265 255 239 239 236
13 4 0 1 357 351 349 351 353 353 351 345 340 336 330 327 327 328 328 326 320 320 320 314 311 310 304 304 306 305 305 306 323 326 293 245 217 222
11 354 350 357 4 356 353 355 358 354 350 343 338 333 330 328 324 323 327 331 327 325 330 331 331 329 318 303 303 315 326 320 309 331 344 323 253 230